Time,TemperatureF,DewpointF,PressureIn,WindDirection,WindDirectionDegrees,WindSpeedMPH,WindSpeedGustMPH,Humidity,HourlyPrecipIn,Conditions,Clouds,dailyrainin,SoftwareType,DateUTC
2013-02-10 00:01:00,24.0,16.0,-100.00,SE,136,4.0,4.0,68,0.00,,,-99.99,,2013-02-10 05:01:00,
2013-02-10 00:11:00,25.0,18.0,-100.00,SE,141,4.0,4.0,68,0.00,,,-99.99,,2013-02-10 05:11:00,
2013-02-10 00:23:00,23.0,16.0,-100.00,SE,135,4.0,4.0,68,0.00,,,-99.99,,2013-02-10 05:23:00,
2013-02-10 00:32:00,25.0,18.0,-100.00,SE,138,4.0,4.0,69,0.00,,,-99.99,,2013-02-10 05:32:00,
2013-02-10 00:42:00,23.0,16.0,-100.00,SE,138,4.0,4.0,68,0.00,,,-99.99,,2013-02-10 05:42:00,
2013-02-10 00:52:00,22.0,14.0,-100.00,SE,131,4.0,4.0,69,0.00,,,-99.99,,2013-02-10 05:52:00,
2013-02-10 01:02:00,22.0,14.0,-100.00,SE,132,4.0,4.0,69,0.00,,,-99.99,,2013-02-10 06:02:00,
2013-02-10 01:11:00,21.0,14.0,-100.00,SE,134,3.0,4.0,71,0.00,,,-99.99,,2013-02-10 06:11:00,
2013-02-10 01:21:00,22.0,16.0,-100.00,ESE,121,2.0,4.0,72,0.00,,,-99.99,,2013-02-10 06:21:00,
2013-02-10 01:32:00,23.0,18.0,-100.00,SSE,148,2.0,4.0,73,0.00,,,-99.99,,2013-02-10 06:32:00,
2013-02-10 01:42:00,22.0,14.0,-100.00,SE,141,2.0,4.0,69,0.00,,,-99.99,,2013-02-10 06:42:00,
2013-02-10 01:51:00,22.0,14.0,-100.00,SE,132,2.0,4.0,69,0.00,,,-99.99,,2013-02-10 06:51:00,
2013-02-10 02:01:00,23.0,16.0,-100.00,SSE,152,4.0,4.0,69,0.00,,,-99.99,,2013-02-10 07:01:00,
2013-02-10 02:11:00,23.0,16.0,-100.00,SE,135,4.0,4.0,69,0.00,,,-99.99,,2013-02-10 07:11:00,
2013-02-10 02:21:00,22.0,14.0,-100.00,SE,131,4.0,4.0,69,0.00,,,-99.99,,2013-02-10 07:21:00,
2013-02-10 02:32:00,22.0,14.0,-100.00,SE,131,4.0,4.0,69,0.00,,,-99.99,,2013-02-10 07:32:00,
2013-02-10 02:42:00,22.0,14.0,-100.00,SE,128,6.0,8.0,69,0.00,,,-99.99,,2013-02-10 07:42:00,
2013-02-10 02:51:00,24.0,18.0,-100.00,SE,129,6.0,8.0,72,0.00,,,-99.99,,2013-02-10 07:51:00,
2013-02-10 03:01:00,22.0,14.0,-100.00,SE,131,6.0,8.0,69,0.00,,,-99.99,,2013-02-10 08:01:00,
2013-02-10 03:11:00,24.0,18.0,-100.00,SE,135,6.0,8.0,72,0.00,,,-99.99,,2013-02-10 08:11:00,
2013-02-10 03:21:00,21.0,14.0,-100.00,SE,145,6.0,8.0,71,0.00,,,-99.99,,2013-02-10 08:21:00,
2013-02-10 03:32:00,22.0,16.0,-100.00,SE,125,6.0,6.0,71,0.00,,,-99.99,,2013-02-10 08:32:00,
2013-02-10 03:43:00,22.0,14.0,-100.00,SE,136,6.0,6.0,69,0.00,,,-99.99,,2013-02-10 08:43:00,
2013-02-10 03:52:00,22.0,14.0,-100.00,SSE,152,6.0,8.0,69,0.00,,,-99.99,,2013-02-10 08:52:00,
2013-02-10 04:02:00,21.0,14.0,-100.00,SSE,155,6.0,8.0,69,0.00,,,-99.99,,2013-02-10 09:02:00,
2013-02-10 04:11:00,24.0,18.0,-100.00,SE,135,7.0,10.0,71,0.00,,,-99.99,,2013-02-10 09:11:00,
2013-02-10 04:21:00,22.0,14.0,-100.00,SE,127,7.0,10.0,69,0.00,,,-99.99,,2013-02-10 09:21:00,
2013-02-10 04:32:00,25.0,18.0,-100.00,SE,139,7.0,10.0,69,0.00,,,-99.99,,2013-02-10 09:32:00,
2013-02-10 04:42:00,21.0,14.0,-100.00,SE,134,6.0,10.0,72,0.00,,,-99.99,,2013-02-10 09:42:00,
2013-02-10 04:51:00,24.0,18.0,-100.00,SE,134,6.0,10.0,72,0.00,,,-99.99,,2013-02-10 09:51:00,
2013-02-10 05:01:00,22.0,16.0,-100.00,SE,144,7.0,10.0,71,0.00,,,-99.99,,2013-02-10 10:01:00,
2013-02-10 05:11:00,22.0,16.0,-100.00,SE,132,6.0,10.0,72,0.00,,,-99.99,,2013-02-10 10:11:00,
2013-02-10 05:21:00,26.0,19.0,-100.00,SE,136,7.0,10.0,72,0.00,,,-99.99,,2013-02-10 10:21:00,
2013-02-10 05:32:00,24.0,18.0,-100.00,SE,141,7.0,10.0,71,0.00,,,-99.99,,2013-02-10 10:32:00,
2013-02-10 05:42:00,25.0,18.0,-100.00,SE,129,7.0,10.0,71,0.00,,,-99.99,,2013-02-10 10:42:00,
2013-02-10 05:51:00,24.0,18.0,-100.00,SE,139,7.0,10.0,72,0.00,,,-99.99,,2013-02-10 10:51:00,
2013-02-10 06:01:00,22.0,16.0,-100.00,ESE,107,6.0,10.0,71,0.00,,,-99.99,,2013-02-10 11:01:00,
2013-02-10 06:11:00,20.0,14.0,-100.00,SE,136,6.0,10.0,71,0.00,,,-99.99,,2013-02-10 11:11:00,
2013-02-10 06:22:00,24.0,18.0,-100.00,SE,136,4.0,10.0,73,0.00,,,-99.99,,2013-02-10 11:22:00,
2013-02-10 06:32:00,24.0,18.0,-100.00,SE,146,4.0,10.0,73,0.00,,,-99.99,,2013-02-10 11:32:00,
2013-02-10 06:42:00,24.0,18.0,-100.00,SE,146,4.0,10.0,73,0.00,,,-99.99,,2013-02-10 11:42:00,
2013-02-10 06:52:00,22.0,16.0,-100.00,SE,145,4.0,10.0,72,0.00,,,-99.99,,2013-02-10 11:52:00,
2013-02-10 07:02:00,24.0,18.0,-100.00,SSE,152,5.0,10.0,72,0.00,,,-99.99,,2013-02-10 12:02:00,
2013-02-10 07:12:00,22.0,16.0,-100.00,SSE,155,4.0,10.0,72,0.00,,,-99.99,,2013-02-10 12:12:00,
2013-02-10 07:21:00,20.0,14.0,-100.00,SE,146,3.0,10.0,72,0.00,,,-99.99,,2013-02-10 12:21:00,
2013-02-10 07:32:00,25.0,18.0,-100.00,SE,146,4.0,10.0,72,0.00,,,-99.99,,2013-02-10 12:32:00,
2013-02-10 07:42:00,21.0,14.0,-100.00,ESE,120,4.0,10.0,73,0.00,,,-99.99,,2013-02-10 12:42:00,
2013-02-10 07:52:00,22.0,16.0,-100.00,SE,131,5.0,10.0,72,0.00,,,-99.99,,2013-02-10 12:52:00,
2013-02-10 08:02:00,24.0,18.0,-100.00,SSE,149,6.0,10.0,73,0.00,,,-99.99,,2013-02-10 13:02:00,
2013-02-10 08:12:00,23.0,16.0,-100.00,SE,127,4.0,10.0,72,0.00,,,-99.99,,2013-02-10 13:12:00,
2013-02-10 08:21:00,22.0,16.0,-100.00,SE,134,6.0,10.0,72,0.00,,,-99.99,,2013-02-10 13:21:00,
2013-02-10 08:31:00,23.0,16.0,-100.00,SE,138,7.0,10.0,72,0.00,,,-99.99,,2013-02-10 13:31:00,
2013-02-10 08:41:00,23.0,16.0,-100.00,SE,127,7.0,10.0,72,0.00,,,-99.99,,2013-02-10 13:41:00,
2013-02-10 08:51:00,23.0,16.0,-100.00,SE,138,6.0,10.0,71,0.00,,,-99.99,,2013-02-10 13:51:00,
2013-02-10 09:02:00,25.0,18.0,-100.00,SE,132,7.0,10.0,72,0.00,,,-99.99,,2013-02-10 14:02:00,
2013-02-10 09:11:00,23.0,16.0,-100.00,SE,129,6.0,10.0,71,0.00,,,-99.99,,2013-02-10 14:11:00,
2013-02-10 09:21:00,24.0,18.0,-100.00,SE,131,6.0,10.0,72,0.00,,,-99.99,,2013-02-10 14:21:00,
2013-02-10 09:32:00,25.0,19.0,-100.00,ESE,117,7.0,10.0,73,0.00,,,-99.99,,2013-02-10 14:32:00,
2013-02-10 09:42:00,25.0,18.0,-100.00,SE,127,6.0,10.0,71,0.00,,,-99.99,,2013-02-10 14:42:00,
2013-02-10 09:52:00,26.0,16.0,-100.00,SE,125,6.0,10.0,64,0.00,,,-99.99,,2013-02-10 14:52:00,
2013-02-10 10:02:00,28.0,18.0,-100.00,SSE,149,6.0,10.0,63,0.00,,,-99.99,,2013-02-10 15:02:00,
2013-02-10 10:11:00,29.0,18.0,-100.00,ESE,107,5.0,10.0,62,0.00,,,-99.99,,2013-02-10 15:11:00,
2013-02-10 10:22:00,29.0,19.0,-100.00,SE,131,4.0,10.0,63,0.00,,,-99.99,,2013-02-10 15:22:00,
2013-02-10 10:32:00,30.0,19.0,-100.00,ESE,121,4.0,10.0,59,0.00,,,-99.99,,2013-02-10 15:32:00,
2013-02-10 10:42:00,31.0,19.0,-100.00,SE,129,4.0,10.0,58,0.00,,,-99.99,,2013-02-10 15:42:00,
2013-02-10 10:52:00,30.0,19.0,-100.00,SE,128,6.0,10.0,59,0.00,,,-99.99,,2013-02-10 15:52:00,
2013-02-10 11:02:00,31.0,18.0,-100.00,SE,136,7.0,10.0,56,0.00,,,-99.99,,2013-02-10 16:02:00,
2013-02-10 11:12:00,33.0,19.0,-100.00,ESE,115,6.0,10.0,53,0.00,,,-99.99,,2013-02-10 16:12:00,
2013-02-10 11:22:00,34.0,18.0,-100.00,SSE,165,7.0,10.0,50,0.00,,,-99.99,,2013-02-10 16:22:00,
2013-02-10 11:32:00,35.0,18.0,-100.00,SSE,152,7.0,10.0,46,0.00,,,-99.99,,2013-02-10 16:32:00,
2013-02-10 11:42:00,35.0,18.0,-100.00,SE,127,5.0,10.0,46,0.00,,,-99.99,,2013-02-10 16:42:00,
2013-02-10 11:52:00,34.0,16.0,-100.00,SSE,158,5.0,10.0,45,0.00,,,-99.99,,2013-02-10 16:52:00,
2013-02-10 12:02:00,36.0,16.0,-100.00,South,184,2.0,10.0,41,0.00,,,-99.99,,2013-02-10 17:02:00,
2013-02-10 12:12:00,37.0,14.0,-100.00,South,175,4.0,10.0,38,0.00,,,-99.99,,2013-02-10 17:12:00,
2013-02-10 12:22:00,37.0,16.0,-100.00,SSE,155,5.0,10.0,41,0.00,,,-99.99,,2013-02-10 17:22:00,
2013-02-10 12:32:00,37.0,18.0,-100.00,SSE,148,6.0,10.0,44,0.00,,,-99.99,,2013-02-10 17:32:00,
2013-02-10 12:42:00,37.0,18.0,-100.00,SSE,158,7.0,10.0,42,0.00,,,-99.99,,2013-02-10 17:42:00,
2013-02-10 12:52:00,40.0,19.0,-100.00,SE,146,5.0,10.0,42,0.00,,,-99.99,,2013-02-10 17:52:00,
2013-02-10 13:02:00,40.0,18.0,-100.00,SE,128,6.0,10.0,37,0.00,,,-99.99,,2013-02-10 18:02:00,
2013-02-10 13:12:00,41.0,19.0,-100.00,SSE,148,6.0,10.0,41,0.00,,,-99.99,,2013-02-10 18:12:00,
2013-02-10 13:22:00,41.0,18.0,-100.00,SSE,162,6.0,10.0,37,0.00,,,-99.99,,2013-02-10 18:22:00,
2013-02-10 13:32:00,42.0,18.0,-100.00,SE,141,4.0,10.0,36,0.00,,,-99.99,,2013-02-10 18:32:00,
2013-02-10 13:42:00,42.0,19.0,-100.00,SE,145,6.0,10.0,38,0.00,,,-99.99,,2013-02-10 18:42:00,
2013-02-10 13:52:00,42.0,18.0,-100.00,SE,145,7.0,10.0,36,0.00,,,-99.99,,2013-02-10 18:52:00,
2013-02-10 14:02:00,43.0,21.0,-100.00,SE,142,5.0,10.0,40,0.00,,,-99.99,,2013-02-10 19:02:00,
2013-02-10 14:12:00,43.0,19.0,-100.00,SE,135,6.0,10.0,37,0.00,,,-99.99,,2013-02-10 19:12:00,
2013-02-10 14:22:00,44.0,18.0,-100.00,SSE,155,7.0,10.0,33,0.00,,,-99.99,,2013-02-10 19:22:00,
2013-02-10 14:32:00,44.0,19.0,-100.00,SSE,148,7.0,10.0,36,0.00,,,-99.99,,2013-02-10 19:32:00,
2013-02-10 14:42:00,45.0,19.0,-100.00,SSE,151,6.0,10.0,34,0.00,,,-99.99,,2013-02-10 19:42:00,
2013-02-10 14:52:00,44.0,19.0,-100.00,SE,136,4.0,10.0,36,0.00,,,-99.99,,2013-02-10 19:52:00,
2013-02-10 15:02:00,44.0,21.0,-100.00,SE,131,4.0,10.0,38,0.00,,,-99.99,,2013-02-10 20:02:00,
2013-02-10 15:11:00,44.0,21.0,-100.00,SE,134,3.0,10.0,40,0.00,,,-99.99,,2013-02-10 20:11:00,
2013-02-10 15:22:00,45.0,21.0,-100.00,SSE,152,5.0,10.0,36,0.00,,,-99.99,,2013-02-10 20:22:00,
2013-02-10 15:32:00,45.0,21.0,-100.00,SSE,158,3.0,10.0,37,0.00,,,-99.99,,2013-02-10 20:32:00,
2013-02-10 15:42:00,45.0,21.0,-100.00,SSE,168,2.0,10.0,37,0.00,,,-99.99,,2013-02-10 20:42:00,
2013-02-10 15:52:00,44.0,21.0,-100.00,SE,128,4.0,10.0,38,0.00,,,-99.99,,2013-02-10 20:52:00,
2013-02-10 16:02:00,44.0,21.0,-100.00,SSE,168,5.0,10.0,38,0.00,,,-99.99,,2013-02-10 21:02:00,
2013-02-10 16:12:00,45.0,21.0,-100.00,SE,125,4.0,10.0,37,0.00,,,-99.99,,2013-02-10 21:12:00,
2013-02-10 16:22:00,44.0,21.0,-100.00,SSE,156,4.0,10.0,40,0.00,,,-99.99,,2013-02-10 21:22:00,
2013-02-10 16:32:00,43.0,23.0,-100.00,SE,129,4.0,10.0,44,0.00,,,-99.99,,2013-02-10 21:32:00,
2013-02-10 16:42:00,43.0,23.0,-100.00,ESE,120,4.0,10.0,44,0.00,,,-99.99,,2013-02-10 21:42:00,
2013-02-10 16:52:00,43.0,23.0,-100.00,SE,131,5.0,10.0,42,0.00,,,-99.99,,2013-02-10 21:52:00,
2013-02-10 17:02:00,43.0,23.0,-100.00,ESE,112,6.0,10.0,42,0.00,,,-99.99,,2013-02-10 22:02:00,
2013-02-10 17:12:00,44.0,23.0,-100.00,ESE,118,7.0,12.0,41,0.00,,,-99.99,,2013-02-10 22:12:00,
2013-02-10 17:22:00,45.0,21.0,-100.00,SSE,168,4.0,12.0,38,0.00,,,-99.99,,2013-02-10 22:22:00,
2013-02-10 17:32:00,45.0,21.0,-100.00,SSE,162,3.0,12.0,37,0.00,,,-99.99,,2013-02-10 22:32:00,
2013-02-10 17:42:00,44.0,23.0,-100.00,SE,134,5.0,12.0,42,0.00,,,-99.99,,2013-02-10 22:42:00,
2013-02-10 17:52:00,44.0,23.0,-100.00,SE,131,6.0,12.0,41,0.00,,,-99.99,,2013-02-10 22:52:00,
2013-02-10 18:02:00,44.0,23.0,-100.00,SSE,158,6.0,12.0,41,0.00,,,-99.99,,2013-02-10 23:02:00,
2013-02-10 18:12:00,43.0,21.0,-100.00,SE,134,7.0,12.0,40,0.00,,,-99.99,,2013-02-10 23:12:00,
2013-02-10 18:22:00,43.0,23.0,-100.00,SE,124,7.0,12.0,42,0.00,,,-99.99,,2013-02-10 23:22:00,
2013-02-10 18:32:00,43.0,21.0,-100.00,ESE,110,6.0,12.0,41,0.00,,,-99.99,,2013-02-10 23:32:00,
2013-02-10 18:42:00,43.0,23.0,-100.00,ESE,120,6.0,12.0,44,0.00,,,-99.99,,2013-02-10 23:42:00,
2013-02-10 18:52:00,41.0,21.0,-100.00,SE,128,7.0,12.0,42,0.00,,,-99.99,,2013-02-10 23:52:00,
2013-02-10 19:02:00,43.0,21.0,-100.00,SSE,163,6.0,12.0,40,0.00,,,-99.99,,2013-02-11 00:02:00,
2013-02-10 19:11:00,45.0,21.0,-100.00,SSE,148,6.0,12.0,37,0.00,,,-99.99,,2013-02-11 00:11:00,
2013-02-10 19:22:00,42.0,21.0,-100.00,SSE,158,5.0,12.0,41,0.00,,,-99.99,,2013-02-11 00:22:00,
2013-02-10 19:32:00,46.0,23.0,-100.00,SSE,156,5.0,12.0,40,0.00,,,-99.99,,2013-02-11 00:32:00,
2013-02-10 19:42:00,44.0,21.0,-100.00,SSW,194,4.0,12.0,38,0.00,,,-99.99,,2013-02-11 00:42:00,
2013-02-10 19:52:00,41.0,21.0,-100.00,SE,139,6.0,12.0,42,0.00,,,-99.99,,2013-02-11 00:52:00,
2013-02-10 20:01:00,44.0,23.0,-100.00,ESE,114,7.0,12.0,41,0.00,,,-99.99,,2013-02-11 01:01:00,
2013-02-10 20:11:00,44.0,21.0,-100.00,SE,142,9.0,12.0,40,0.00,,,-99.99,,2013-02-11 01:11:00,
2013-02-10 20:21:00,43.0,23.0,-100.00,SE,127,9.0,12.0,44,0.00,,,-99.99,,2013-02-11 01:21:00,
2013-02-10 20:32:00,42.0,23.0,-100.00,SSE,148,9.0,12.0,45,0.00,,,-99.99,,2013-02-11 01:32:00,
2013-02-10 20:42:00,44.0,23.0,-100.00,SE,144,9.0,12.0,42,0.00,,,-99.99,,2013-02-11 01:42:00,
2013-02-10 20:52:00,45.0,27.0,-100.00,SE,129,10.0,12.0,46,0.00,,,-99.99,,2013-02-11 01:52:00,
2013-02-10 21:01:00,45.0,25.0,-100.00,ESE,121,11.0,14.0,44,0.00,,,-99.99,,2013-02-11 02:01:00,
2013-02-10 21:11:00,44.0,25.0,-100.00,SE,125,14.0,17.0,44,0.00,,,-99.99,,2013-02-11 02:11:00,
2013-02-10 21:21:00,45.0,27.0,-100.00,ESE,107,12.0,17.0,47,0.00,,,-99.99,,2013-02-11 02:21:00,
2013-02-10 21:32:00,44.0,27.0,-100.00,ESE,122,12.0,17.0,47,0.00,,,-99.99,,2013-02-11 02:32:00,
2013-02-10 21:42:00,44.0,27.0,-100.00,SE,136,11.0,17.0,47,0.00,,,-99.99,,2013-02-11 02:42:00,
2013-02-10 21:52:00,44.0,27.0,-100.00,SE,138,11.0,17.0,47,0.00,,,-99.99,,2013-02-11 02:52:00,
2013-02-10 22:02:00,44.0,27.0,-100.00,South,179,10.0,17.0,50,0.00,,,-99.99,,2013-02-11 03:02:00,
2013-02-10 22:11:00,44.0,27.0,-100.00,SE,139,12.0,17.0,49,0.00,,,-99.99,,2013-02-11 03:11:00,
2013-02-10 22:21:00,44.0,28.0,-100.00,SE,138,12.0,17.0,51,0.00,,,-99.99,,2013-02-11 03:21:00,
2013-02-10 22:32:00,44.0,27.0,-100.00,SE,146,12.0,17.0,49,0.00,,,-99.99,,2013-02-11 03:32:00,
2013-02-10 22:42:00,42.0,25.0,-100.00,SE,134,9.0,17.0,47,0.00,,,-99.99,,2013-02-11 03:42:00,
2013-02-10 22:52:00,45.0,28.0,-100.00,SSE,163,9.0,17.0,49,0.00,,,-99.99,,2013-02-11 03:52:00,
2013-02-10 23:02:00,44.0,28.0,-100.00,SE,129,11.0,17.0,50,0.00,,,-99.99,,2013-02-11 04:02:00,
2013-02-10 23:11:00,44.0,27.0,-100.00,SE,125,11.0,17.0,49,0.00,,,-99.99,,2013-02-11 04:11:00,
2013-02-10 23:21:00,44.0,28.0,-100.00,ESE,122,11.0,17.0,51,0.00,,,-99.99,,2013-02-11 04:21:00,
2013-02-10 23:32:00,44.0,27.0,-100.00,ESE,121,11.0,17.0,50,0.00,,,-99.99,,2013-02-11 04:32:00,
2013-02-10 23:42:00,45.0,28.0,-100.00,SE,128,8.0,17.0,49,0.00,,,-99.99,,2013-02-11 04:42:00,
2013-02-10 23:51:00,44.0,28.0,-100.00,SSE,153,11.0,17.0,50,0.00,,,-99.99,,2013-02-11 04:51:00,